Regional Weather Roundup
Issued by NWS

Home | Current Version | Previous Version | Graphics & Text | Print | Product List | Glossary On
Versions: 1 2 3 4 5 6 7 8 9 10 11 12 13 14 15 16 17 18 19 20 21 22 23 24 25 26 27 28 29 30 31 32 33 34 35 36 37 38 39 40 41 42 43 44 45 46 47 48 49 50
000
ASUS45 KTFX 201904
RWRMT
MONTANA HOURLY WEATHER ROUNDUP
NATIONAL WEATHER SERVICE GREAT FALLS MT
1204 PM MST THU NOV 20 2014

NOTE: "FAIR" INDICATES FEW OR NO CLOUDS BELOW 12000 FEET WITH NO
SIGNIFICANT WEATHER AND/OR OBSTRUCTIONS TO VISIBILITY.

* THESE STATIONS ARE NOT UNDER NWS QUALITY CONTROL. THEY DO NOT
   REPORT WEATHER SUCH AS PRECIPITATION OR FOG.

MTZ001>007-043-202000-
WEST OF THE DIVIDE
CITY           SKY/WX    TMP DP  RH WIND       PRES   REMARKS
KALISPELL      FOG       25  25 100 CALM      30.04F VSB 1/2
MISSOULA       CLOUDY    27  21  78 CALM      30.05F
BUTTE          CLOUDY    32  21  64 CALM      29.96F
MULLAN PASS    CLOUDY    28  18  66 VRB6      29.94F WCI  21
* ESSEX        N/A       27  19  72 N4         N/A
* LINCOLN      N/A       32  18  56 NE3        N/A
* POLSON       N/A       24  23  96 S1         N/A
* RONAN APT    PTSUNNY   25  21  85 N/A        N/A
* SEELEY LAKE  N/A       30  21  69 E1         N/A
* THOMP F APT  CLOUDY    33  14  45 E6G11      N/A   WCI  27
* YAAK HILL    N/A       28  20  72 S1         N/A
$$

MTZ008-052>055-202000-
SOUTHWEST MONTANA
CITY           SKY/WX    TMP DP  RH WIND       PRES   REMARKS
BOZEMAN        PTSUNNY   32  21  64 CALM      29.96F
DILLON         PTCLDY   N/A N/A N/A N/A       29.97F
* W YELLOWSTON PTSUNNY   31  18  59 NE2        N/A
* ENNIS APT    PTCLDY    39  21  48 SE16G22    N/A   WCI  30
* THREE FORKS  PTSUNNY   30  28  92 N/A        N/A
* BOULDER HILL N/A       37  15  41 SW11       N/A   WCI  29
* MONIDA PASS  N/A       30  16  56 SE16       N/A   WCI  19
* RAYNOLDS PAS N/A       32  14  47 SE20G26    N/A   WCI  20
* WHITEHALL    N/A       42  24  49 W8         N/A
* WISE RIVER   N/A       34  18  52 E4G11      N/A
$$

MTZ009>010-012-014-046-048-049-054-202000-
EAST SLOPES AND CENTRAL MONTANA
CITY           SKY/WX    TMP DP  RH WIND       PRES   REMARKS
CUT BANK       PTSUNNY   45  23  42 W23G29    29.78F
GREAT FALLS    PTSUNNY   45  25  45 SW16      29.81F
HELENA         PTCLDY    36  21  54 CALM      29.94F
MALMSTROM AFB  PTSUNNY   43  27  53 SW17      29.82F
* DEARBORN     N/A       48  18  30 SW9G26     N/A
* EAST GLACIER N/A       39  17  41 W30G43     N/A   WCI  27
* MONARCH      N/A       44  14  30 SW9G17     N/A
* PENDROY      N/A       47  20  34 SW5G10     N/A
* ROGERS PASS  N/A       38  14  37 SE11G25    N/A   WCI  31
* SAINT MARY   N/A       43  17  35 S10G25     N/A
* SWEET GRASS  N/A       37  37 100 SW13G19    N/A   WCI  29
$$

MTZ011-013-016-021-035-040-045-047-050-051-202000-
NORTH CENTRAL MONTANA
CITY           SKY/WX    TMP DP  RH WIND       PRES   REMARKS
HAVRE          PTSUNNY   23  19  85 S3        29.83F
LEWISTOWN      PTCLDY    45  27  49 SW8       29.82F
* N BAR RANCH  SUNNY     50  16  26 CALM      29.82F
* CHESTER      N/A       27  25  92 SW1        N/A
* DENTON       N/A       46  25  44 SE3        N/A
* GEYSER       N/A       52  16  24 W15G20     N/A
* JUDITH GAP   N/A       46  19  34 E6         N/A
* LOMA         N/A       20  18  92 E1         N/A
$$

MTZ017>020-022>027-061-062-202000-
NORTHEAST MONTANA
CITY           SKY/WX    TMP DP  RH WIND       PRES   REMARKS
GLASGOW        CLOUDY    23  19  85 SE14      29.85F WCI  10
GLENDIVE       CLOUDY    21  19  92 S7        29.93F WCI  12
JORDAN         SUNNY    N/A N/A N/A N/A       29.84F
SIDNEY         CLOUDY    19  14  81 S9        29.97F WCI   8
WOLF POINT     PTSUNNY   21  18  88 CALM      29.91F
* BEAVER HILL  N/A       21  19  92 SE11       N/A   WCI   9
* CIRCLE       N/A       29  22  75 S5         N/A   WCI  24
* LINDSAY DVD  N/A       19  17  92 SE6        N/A   WCI  11
* NAVAJO       N/A       17  15  92 S11        N/A   WCI   4
* SACO         N/A       24  19  81 SE6        N/A   WCI  17
$$

MTZ028>042-056>058-202000-
SOUTHCENTRAL AND SOUTHEAST MONTANA
CITY           SKY/WX    TMP DP  RH WIND       PRES   REMARKS
BAKER          PTCLDY    27  19  72 SE10      29.91F WCI  18
BILLINGS       PTSUNNY   37  21  52 SW17G28   29.86F WCI  27
LIVINGSTON     PTSUNNY   45  19  35 W23G38    29.89F
MILES CITY     SUNNY     27  19  72 SE6       29.89F WCI  20
* LAUREL APT   PTSUNNY   39  19  45 N/A        N/A
* ALZADA       N/A       27  24  88 SE2        N/A
* HYSHAM       N/A       38  16  41 W9G17      N/A   WCI  32
* LAME DEER    N/A       47  20  34 SW8        N/A
* REED POINT   N/A       35  22  59 E1         N/A
* ROSCOE HILL  N/A       45  13  27 NW1        N/A
$$

REGIONAL REPORTS...DAKOTAS
CITY           SKY/WX    TMP DP  RH WIND       PRES   REMARKS
WILLISTON      PTSUNNY   19  10  68 S12       29.97F WCI   6
DICKINSON      FOG       19  16  88 S15       29.93F WCI   5
BEACH          CLOUDY    19  19 100 S12       29.92F WCI   6
CROSBY         SUNNY     18   9  68 S12       29.96F WCI   5
BISMARCK       SUNNY     19   9  65 SW8       30.08F WCI   9
GRAND FORKS    SUNNY     18   1  47 W6        30.14F WCI  10
FARGO          SUNNY     19   3  49 NW6       30.16S WCI  11
BUFFALO SD     SUNNY     25  19  78 S12       29.86F WCI  14
RAPID CITY     FOG       21  19  92 SE3       29.95F VSB 2
$$

REGIONAL REPORTS...WYOMING/IDAHO/WASHINGTON
CITY           SKY/WX    TMP DP  RH WIND       PRES   REMARKS
GILLETTE       SUNNY     39  25  57 SW8       29.89F WCI  33
SHERIDAN       PTCLDY    37  19  48 CALM      29.88F
CODY           PTSUNNY   27  19  72 CALM      29.91F
YELLOWSTONE LA PTSUNNY   30  14  51 VRB3      30.06F
SALMON         CLOUDY    27  18  69 N6        30.09F WCI  20
MULLAN PASS    CLOUDY    28  18  66 VRB6      29.94S WCI  21
SAND POINT     LGT SNOW  30  28  92 SW3       30.06S
SPOKANE        LGT SNOW  28  25  89 SW3       30.04F VSB 2

$$



USA.gov is the U.S. government's official web portal to all federal, state and local government web resources and services.